Home   Weather   Changsha   Past weeks
Flag for China

Past Weather in Changsha, Hunan, China — Yesterday and Last 2 Weeks

Now
90 °F

Passing clouds.


Feels Like: 93 °F
Forecast: 92 / 78 °F
Wind: 3 mph from Southwest

Location: Changsha

Current Time: Jun 26, 2019 at 8:15:51 pm

Latest Report: Jun 26, 2019 at 7:00 pm


Visibility: N/A

Pressure: 29.56 "Hg

Humidity: 49%

Dew Point: 68 °F

Location of ChangshaLocation

Past Weather in Changsha — Graph

°F

Changsha Temperature Yesterday

Maximum temperature yesterday: 86 °F (at 5:00 pm)
Minimum temperature yesterday: 75 °F (at 4:00 am)
Average temperature yesterday: 80 °F

High & Low Weather Summary for the Past Weeks

 TemperatureHumidityPressure
High97 °F (Jun 20, 1:00 pm)100% (Jun 12, 9:00 pm)29.77 "Hg (Jun 12, 9:00 pm)
Low66 °F (Jun 14, 4:00 am)28% (Jun 15, 5:00 pm)29.50 "Hg (Jun 20, 5:00 pm)
Average79 °F77%29.68 "Hg
* Reported Jun 11 7:00 pm — Jun 26 7:00 pm, Changsha. Weather by CustomWeather, © 2019

Note: Actual official high and low records may vary slightly from our data, if they occured in-between our weather recording intervals... More about our weather records

Advertising

Changsha Weather History for the Previous 24 Hours

Scroll right to see more
 ConditionsComfort  
Time TempWeatherWind HumidityBarometerVisibility
7:00 pm
Wed, Jun 26
90 °FPassing clouds.3 mph49%29.56 "HgN/A
6:00 pm91 °FPassing clouds.3 mph46%29.56 "HgN/A
5:00 pm91 °FPassing clouds.3 mph44%29.56 "HgN/A
4:00 pm91 °FScattered clouds.3 mph44%29.56 "HgN/A
3:00 pm93 °FPartly sunny.3 mph41%29.59 "HgN/A
2:00 pm91 °FPartly sunny.3 mph46%29.62 "HgN/A
1:00 pm90 °FPartly sunny.3 mph46%29.62 "HgN/A
12:00 pm88 °FScattered clouds.3 mph55%29.65 "Hg5 mi
11:00 am88 °FClear.1 mph55%29.68 "Hg4 mi
10:00 am84 °FHaze.3 mph66%29.68 "Hg2 mi
9:00 am82 °FHaze.1 mph70%29.68 "Hg2 mi
8:00 am79 °FFog.3 mph84%29.71 "Hg2 mi
7:00 am75 °FFog.3 mph94%29.68 "Hg1 mi
6:00 am73 °FFog.1 mph94%29.68 "Hg2 mi
5:00 am73 °FFog.1 mph94%29.68 "Hg2 mi
4:00 am75 °FFog.1 mph89%29.68 "Hg2 mi
3:00 am75 °FFog.1 mph94%29.68 "Hg3 mi
2:00 am75 °FFog.1 mph94%29.68 "Hg3 mi
1:00 am77 °FFog.1 mph89%29.71 "Hg3 mi
12:00 am77 °FFog.3 mph89%29.71 "Hg3 mi
11:00 pm
Tue, Jun 25
79 °FClear.1 mph84%29.74 "Hg4 mi
10:00 pm79 °FClear.1 mph89%29.74 "Hg4 mi
9:00 pm81 °FClear.1 mph79%29.71 "Hg4 mi
8:00 pm81 °FClear.1 mph74%29.71 "Hg4 mi
Weather by CustomWeather, © 2019

See weather overview